Vorticity
7 6 6 6 6 6 6 6 6 5 5 6 6 6 5 6 6 6 5 5 4 4 5 5 5 5 6 6 7 7 7 7 7 6 6 6 6 6 5 5 5 4 4 4 5 5 6 7 8 9 9 9 9 9 10 11 12 12 13 13 13 13 13 12 12 12 12 12 12 13 13 13 13 12 11 9 8 7 6 6 6 6 5 5 5 5
7 7 7 7 7 6 6 7 7 6 5 6 6 6 5 5 5 5 5 5 5 5 5 5 5 6 6 7 7 8 8 7 7 6 6 6 6 5 5 5 5 5 5 5 5 6 7 8 9 9 9 9 9 10 10 11 12 12 13 13 13 13 13 12 12 12 12 12 13 14 14 14 13 12 10 9 8 7 6 6 6 6 6 5 5 5
6 7 7 7 7 7 6 6 7 7 7 7 7 6 6 5 5 5 5 5 6 6 6 6 6 6 7 7 8 8 8 7 7 6 6 6 5 5 5 5 5 5 5 5 6 7 8 9 10 10 10 10 10 10 11 11 12 12 13 13 13 13 12 12 12 12 12 13 14 14 14 13 12 11 9 8 7 7 7 6 6 6 6 5 5 5
7 7 6 6 7 7 7 7 7 7 7 7 7 6 6 5 5 5 5 5 5 6 7 6 6 7 7 8 8 8 8 7 7 6 5 5 5 5 5 5 5 5 6 6 7 8 9 10 10 11 10 10 10 11 11 12 12 13 13 14 13 13 12 12 12 12 13 14 15 15 14 13 11 10 9 8 7 7 7 6 6 6 6 5 5 4
7 7 6 6 7 7 8 8 7 7 7 7 7 6 6 5 5 5 5 6 6 6 6 6 7 7 7 8 8 8 8 7 7 6 5 5 5 5 5 5 6 6 6 7 8 9 10 10 11 11 10 10 11 11 12 12 13 13 14 14 14 13 12 12 12 13 14 15 15 14 13 12 10 9 8 8 7 7 7 6 6 6 6 5 5 4
7 7 6 7 7 7 7 8 7 7 7 6 6 6 5 5 5 5 5 6 7 7 6 6 7 7 8 8 8 8 8 7 7 6 6 6 6 6 6 6 6 7 7 8 9 10 11 11 11 11 11 11 11 11 12 13 13 14 14 14 14 13 12 13 13 14 15 15 14 13 11 10 9 8 8 7 7 7 7 6 6 6 5 5 4 3
7 7 7 8 8 8 8 8 7 7 6 6 5 5 5 5 5 5 6 6 7 7 7 7 7 8 8 9 9 8 8 7 7 6 6 6 6 7 7 7 7 8 8 9 10 11 11 11 11 11 11 11 11 12 12 13 14 14 15 14 13 13 13 13 14 15 15 14 13 11 10 9 9 8 8 7 7 7 7 6 6 5 5 4 3 3
7 7 8 9 8 8 8 7 7 6 6 5 5 5 5 5 6 6 7 7 7 7 7 8 8 8 8 9 9 9 8 7 7 7 6 7 7 7 7 8 8 9 10 11 11 11 11 11 11 11 11 11 12 12 13 14 14 15 14 14 13 13 14 14 15 15 14 12 11 9 9 9 8 8 8 7 7 7 7 6 6 5 4 3 3 3
7 7 8 8 8 8 7 6 6 6 5 5 5 5 5 6 6 7 7 8 8 8 8 8 9 9 9 9 9 9 8 7 7 7 7 7 7 8 8 9 9 10 11 11 12 12 11 11 11 11 12 12 12 13 14 14 14 14 14 14 14 14 14 15 14 13 12 10 9 9 8 8 8 8 8 8 7 7 6 6 5 4 3 3 3 3
9 8 8 8 8 7 6 6 5 5 5 5 5 6 6 6 6 7 7 8 9 9 9 9 9 9 9 9 9 9 9 8 7 7 8 8 8 9 9 10 10 11 11 11 12 12 12 12 12 12 12 13 13 14 14 14 14 14 14 14 14 14 14 14 13 11 10 9 9 8 9 9 9 8 8 8 7 7 6 5 4 3 3 3 3 4
9 9 8 8 7 7 6 5 5 5 4 5 6 6 7 7 7 7 8 8 9 10 10 9 9 9 9 9 9 8 9 9 9 8 8 9 9 9 10 10 11 11 12 12 12 12 12 12 12 13 13 13 14 14 15 15 15 14 14 14 14 14 14 12 11 10 9 9 9 9 9 9 9 8 8 7 7 6 5 4 3 3 3 3 4 5
9 8 8 7 7 6 5 5 4 4 5 5 6 7 7 8 8 8 9 9 9 9 9 9 9 8 9 9 9 9 9 9 10 10 10 10 10 11 11 11 12 12 12 12 12 12 13 13 13 13 13 14 15 15 15 15 14 14 14 14 14 13 12 11 11 10 9 9 9 9 9 9 8 8 7 7 6 5 4 3 3 3 3 4 5 6
8 7 7 6 6 5 4 4 4 5 6 7 8 8 8 8 9 9 10 9 9 8 8 9 9 9 9 9 10 9 9 9 9 9 10 11 11 12 12 12 12 12 12 12 13 13 13 13 13 14 14 15 15 15 15 14 14 14 14 13 13 12 11 10 10 9 9 9 9 9 9 9 8 7 7 6 5 4 3 3 3 4 5 6 7 8
7 6 5 5 4 4 4 4 5 6 8 8 9 9 9 9 10 10 10 10 10 9 8 8 9 9 9 9 10 9 9 9 9 10 11 11 12 12 12 12 12 12 13 13 13 14 13 13 14 14 15 15 15 15 14 14 13 13 12 12 11 11 10 10 9 9 9 9 9 9 9 8 7 6 5 5 4 3 3 3 4 5 6 7 8 9
6 5 4 3 3 4 5 6 8 9 10 10 10 10 10 10 11 11 11 11 10 9 8 9 9 9 9 9 10 10 10 10 10 10 11 11 11 12 12 12 12 13 13 14 14 14 13 14 14 15 15 15 14 14 13 13 12 12 11 11 11 10 10 9 9 9 9 9 9 8 8 7 6 5 4 4 3 3 4 5 6 7 8 9 9 9
4 3 3 4 5 7 8 10 11 11 11 11 10 10 10 11 11 10 10 10 10 10 9 10 11 11 11 10 10 11 11 11 11 11 11 11 11 12 12 12 13 13 14 14 14 14 14 14 15 15 14 14 13 13 13 12 12 11 11 11 10 10 9 9 9 9 9 8 8 7 7 6 5 4 3 4 4 5 6 7 8 8 9 9 9 9
4 4 6 8 10 12 12 13 13 12 11 10 10 10 10 10 10 10 10 10 10 11 10 10 10 11 11 11 10 11 12 13 12 12 12 12 12 12 12 13 13 14 14 14 14 14 14 14 14 14 13 13 13 12 12 12 11 11 11 10 10 9 9 9 9 8 8 8 7 6 5 4 4 4 4 5 6 7 8 8 9 9 9 9 9 9
7 9 11 13 13 13 13 13 12 11 11 11 11 11 11 11 11 11 11 11 11 11 11 10 9 9 10 10 10 10 11 13 13 12 12 12 12 13 13 14 14 14 14 14 14 14 14 14 13 13 13 12 12 12 11 11 11 11 10 10 9 9 9 8 8 8 7 6 5 5 4 4 4 5 6 7 8 9 9 9 9 9 9 9 10 10
12 13 14 14 13 12 11 11 11 11 11 11 11 12 12 11 11 11 11 11 11 10 10 10 10 9 9 10 11 11 11 12 12 12 11 12 13 13 14 14 14 14 14 14 14 13 13 13 13 12 12 11 11 11 11 11 10 10 9 9 9 9 8 8 7 6 6 5 5 4 5 5 6 7 8 9 9 10 10 10 10 10 10 10 10 10
14 14 13 12 11 10 10 10 11 11 11 11 11 11 11 11 11 11 11 11 11 10 10 10 10 11 10 11 11 11 11 11 11 12 12 12 13 13 14 14 14 14 13 13 13 13 12 12 12 11 11 11 11 11 11 10 10 9 9 9 8 8 7 7 6 5 5 5 5 6 6 8 9 9 10 10 10 10 10 10 10 10 10 11 11 11
12 11 10 10 9 9 10 10 10 11 11 11 11 11 11 11 11 11 11 10 10 11 10 11 11 11 11 11 11 11 10 11 11 12 12 14 14 14 14 13 13 13 12 12 12 12 11 11 11 11 11 11 11 11 10 10 9 9 9 8 8 7 6 6 5 5 5 6 7 8 9 10 10 11 11 11 11 11 10 11 11 11 11 11 11 11
10 10 10 9 9 10 10 10 10 10 10 10 10 10 10 10 10 10 10 10 10 11 11 11 11 11 11 11 11 11 11 11 12 12 13 15 15 14 13 12 12 11 11 11 11 11 10 10 10 10 11 11 10 10 10 9 9 9 8 7 7 6 6 6 6 6 7 8 9 10 11 11 11 11 11 11 11 11 11 11 11 12 12 12 12 11
10 10 10 10 10 10 10 10 10 10 10 10 10 9 9 8 9 9 9 9 10 10 11 11 11 11 11 12 12 13 13 13 13 14 14 14 13 12 11 11 10 10 10 10 10 10 10 10 10 11 11 10 10 10 9 9 8 8 7 7 6 6 6 7 7 8 9 10 11 11 11 12 11 11 11 11 11 11 12 12 12 12 12 12 12 12
10 10 10 10 10 10 9 9 9 9 9 9 9 9 8 8 8 9 9 9 10 10 11 11 11 12 13 14 14 15 15 14 14 14 15 14 12 10 10 9 9 10 10 11 11 11 11 11 11 11 10 10 10 9 8 8 7 7 7 7 7 7 8 9 9 10 11 12 12 12 12 12 12 12 12 12 12 12 12 13 12 12 12 12 12 12
11 11 10 10 9 9 9 9 9 8 8 8 9 9 9 9 9 10 10 11 11 11 11 12 13 14 14 14 15 15 15 14 14 14 14 12 11 10 9 9 9 10 11 12 12 11 11 11 11 10 10 9 9 8 7 7 7 7 7 7 8 9 10 11 11 12 12 13 13 13 12 12 12 12 12 13 13 13 13 12 12 12 12 11 11 11
10 10 10 9 9 9 8 8 8 8 8 8 8 9 9 9 10 11 11 12 12 12 13 14 15 15 14 14 14 14 13 13 13 13 12 10 9 9 10 10 11 12 12 12 12 11 11 10 10 9 9 8 8 7 7 7 7 7 8 8 9 10 11 12 12 13 13 13 13 13 13 13 13 13 13 12 12 12 12 12 12 11 11 11 11 11
9 9 9 8 8 8 7 7 7 7 8 8 9 9 10 10 11 12 13 13 13 14 15 15 15 15 14 14 13 13 12 12 12 11 9 9 9 10 11 12 13 13 13 12 11 10 9 9 8 7 7 7 7 7 7 7 8 8 9 10 11 11 12 12 13 13 13 13 13 13 13 12 12 12 12 12 12 11 11 11 11 11 11 11 11 12
8 8 8 7 7 7 7 7 7 8 8 9 10 10 11 11 12 13 14 14 15 15 16 16 15 14 13 12 11 11 11 10 10 9 8 9 10 12 13 13 13 13 11 10 9 7 7 7 6 6 5 6 6 7 8 8 9 10 11 11 12 12 12 13 13 13 12 12 12 12 11 11 11 11 11 11 11 11 11 11 11 11 11 11 11 11
7 7 7 7 7 7 8 8 9 9 10 11 11 12 12 13 13 14 15 15 15 16 16 15 13 12 11 10 9 9 9 9 9 9 10 11 13 14 13 13 12 11 10 8 7 5 5 5 5 5 5 6 7 8 9 10 10 11 11 12 12 12 12 12 12 12 12 11 11 11 11 11 11 11 12 12 12 12 12 12 12 11 11 11 11 11
8 8 8 8 8 9 9 10 10 11 12 12 13 13 14 14 15 15 15 15 15 15 14 13 12 11 10 9 9 9 9 10 10 11 12 14 14 13 12 11 11 10 9 8 6 4 3 3 4 5 6 7 8 9 9 10 10 11 11 11 11 12 12 11 11 11 11 11 11 11 12 12 12 12 12 12 12 12 12 12 11 11 11 11 10 10
9 10 10 10 11 11 11 12 13 13 14 14 15 15 16 16 16 17 16 16 15 13 12 11 10 9 9 8 8 9 10 11 13 13 14 13 13 11 10 10 9 9 8 7 6 5 4 4 4 5 7 8 9 9 9 10 10 10 10 10 11 11 10 10 10 10 10 11 11 11 12 12 12 12 12 12 12 12 11 11 11 11 10 10 10 10
11 12 13 13 13 14 14 14 15 15 16 16 16 17 17 17 17 17 16 14 13 11 10 9 9 9 9 9 10 11 12 13 14 14 13 12 11 10 8 8 8 8 7 6 5 6 6 6 6 6 7 8 9 9 10 10 10 10 9 9 9 9 9 9 9 10 10 11 11 11 11 11 11 11 11 11 11 11 11 10 10 10 10 10 10 11
14 15 15 15 16 16 16 17 17 17 17 17 17 17 17 17 16 15 13 12 10 9 9 8 8 9 10 11 13 14 15 14 14 13 11 9 9 9 8 6 7 7 8 7 7 7 7 8 9 8 8 8 9 9 9 9 9 9 9 9 9 9 9 9 10 11 11 11 11 11 11 11 11 11 11 11 11 10 10 10 10 10 10 10 11 11
16 17 17 17 17 18 18 18 18 18 18 17 17 17 16 15 13 12 10 9 8 7 7 8 9 10 12 14 14 15 14 13 13 11 10 8 7 7 7 6 6 7 8 8 8 9 9 10 11 10 10 9 9 9 9 9 9 9 9 9 9 10 10 11 11 12 12 11 11 11 11 11 11 11 10 10 10 10 9 10 10 10 10 11 11 11
19 19 19 19 19 19 19 18 18 17 17 16 16 15 14 12 10 9 7 7 7 7 8 10 11 12 14 14 14 13 12 12 11 10 9 7 6 6 6 6 7 7 8 9 9 9 10 11 11 11 10 10 10 9 9 9 9 9 10 11 11 12 12 12 12 12 12 12 11 11 11 11 10 10 10 9 9 9 9 9 10 10 11 11 11 12
20 20 20 19 19 18 18 17 16 16 15 14 13 12 10 9 7 7 6 7 8 9 12 14 15 15 14 12 11 10 10 10 10 9 8 7 6 6 6 7 8 8 8 9 9 9 10 10 10 10 10 10 10 10 10 10 10 11 12 13 13 14 14 13 13 13 12 12 12 11 11 10 10 10 10 9 9 9 9 10 10 10 11 11 12 12
20 19 19 18 17 17 16 15 14 14 13 12 10 9 8 7 6 6 7 9 11 13 15 16 15 14 12 11 9 8 8 9 9 8 8 7 7 7 7 8 8 9 9 9 10 9 9 9 9 10 10 10 10 10 10 10 11 12 12 13 13 13 13 13 13 12 12 12 12 11 11 10 10 10 10 10 10 10 10 10 11 11 11 12 12 12
17 17 16 16 15 15 14 13 12 11 11 9 8 7 6 6 7 9 11 13 15 16 16 15 13 12 10 9 9 8 8 7 7 7 7 8 8 8 8 8 9 9 9 9 9 9 10 10 10 10 10 11 11 12 11 11 11 12 12 11 12 12 13 12 12 12 12 12 11 11 11 10 10 10 10 10 10 11 11 11 12 12 12 12 12 13
15 14 14 13 13 13 12 11 10 9 8 7 6 6 7 8 11 13 16 17 17 16 14 12 11 10 9 9 8 7 7 6 6 7 7 8 8 9 9 9 9 9 10 10 10 10 11 11 11 11 11 12 12 13 12 12 12 12 11 11 12 13 13 13 12 12 12 11 11 11 10 10 10 10 10 11 11 11 12 12 12 12 12 13 13 13
13 12 12 11 11 11 10 9 7 7 6 6 7 9 11 14 16 17 17 16 14 12 10 9 9 8 8 8 7 7 7 7 7 7 8 8 9 9 9 9 9 9 9 10 11 11 12 12 13 13 13 13 12 12 12 12 12 12 12 13 13 13 13 12 12 12 12 11 11 10 10 10 10 11 11 11 12 12 12 12 13 13 13 13 13 13
11 11 10 9 9 8 7 6 6 6 7 9 11 15 17 18 18 17 15 13 11 10 9 8 8 7 7 7 8 8 8 8 8 8 9 9 9 9 10 10 10 10 10 10 11 12 13 13 13 13 14 13 13 13 13 13 13 13 13 14 14 13 12 12 12 12 11 11 11 10 10 11 11 11 11 12 12 13 13 13 14 14 14 14 14 15
9 9 8 8 7 6 6 7 8 10 12 15 17 19 19 17 15 13 11 10 9 8 7 7 7 7 8 9 9 9 9 9 9 9 9 9 9 9 10 10 11 11 11 11 12 12 13 13 13 13 13 12 12 13 13 13 13 14 14 15 14 14 13 13 12 11 10 11 11 11 11 11 11 12 12 12 13 13 13 14 15 15 15 16 18 20
8 7 7 7 7 8 9 11 14 17 19 19 19 17 14 12 10 9 8 8 7 7 7 7 7 8 8 9 10 10 11 10 10 9 9 9 9 9 10 11 11 11 11 12 12 12 12 12 12 13 13 13 13 13 14 14 14 14 14 14 14 13 13 12 11 10 10 10 11 11 11 11 12 12 12 12 13 13 14 15 15 16 18 19 21 24
8 9 9 10 11 13 15 18 19 19 18 16 14 12 10 9 8 7 7 7 7 7 8 8 9 9 10 10 9 9 9 9 9 9 9 9 10 10 11 11 11 11 11 11 11 11 11 12 13 13 13 13 14 14 15 14 14 14 14 13 13 13 13 11 10 10 10 10 11 11 11 12 12 12 12 13 13 14 14 15 17 19 22 25 27 28
11 12 13 15 17 18 19 18 17 15 13 11 10 8 7 7 6 6 7 7 8 8 9 9 9 9 10 9 9 8 8 8 9 9 10 11 11 11 11 11 11 11 11 11 12 12 12 13 13 13 13 14 14 15 15 15 14 13 13 12 12 12 12 11 11 11 11 11 11 11 12 11 11 12 13 13 14 14 15 17 20 23 26 28 29 30
16 17 18 19 18 17 16 14 12 10 9 8 7 7 6 6 6 7 7 8 8 9 9 9 9 9 8 8 7 7 8 8 9 10 10 11 11 12 12 11 11 10 11 12 13 13 14 14 14 14 14 15 15 15 15 14 13 13 12 11 11 11 11 11 11 11 11 11 12 12 11 11 12 12 13 13 14 15 17 21 24 27 29 30 30 29
18 18 17 16 15 13 11 10 9 8 7 7 6 6 6 7 7 8 9 9 9 9 9 8 9 8 7 7 7 7 8 9 9 10 10 11 11 11 11 11 11 12 12 13 14 15 15 15 15 16 15 15 15 15 14 13 12 12 11 10 10 10 10 10 10 11 11 12 12 12 12 12 13 13 13 14 15 17 20 25 29 31 32 30 28 26
16 15 13 12 10 9 8 7 7 6 6 7 7 7 7 8 8 9 9 9 9 8 8 8 8 8 8 8 9 9 9 10 10 9 9 10 10 10 10 11 12 13 14 15 15 15 15 15 16 17 16 15 14 13 12 11 11 11 10 10 10 10 10 11 11 11 12 12 12 12 12 13 13 13 14 15 17 20 24 29 32 33 32 29 26 23
12 10 9 8 7 7 7 6 6 6 7 7 8 8 9 9 9 9 8 8 8 8 8 8 8 8 9 9 10 10 11 11 10 10 9 9 9 9 10 11 13 14 15 15 15 15 15 16 17 18 17 15 13 12 10 10 9 9 9 10 10 10 11 11 12 12 12 12 12 12 13 13 14 14 15 17 20 24 28 32 33 33 30 27 24 21
8 8 7 6 6 6 6 6 7 7 8 8 8 9 9 9 9 9 8 8 8 8 8 8 8 9 10 10 10 10 10 10 10 10 10 10 10 11 12 13 14 15 15 15 14 14 13 15 17 18 18 15 13 11 9 8 8 8 9 10 10 11 11 12 12 12 12 12 12 13 13 14 15 16 18 21 24 28 33 35 35 32 28 25 23 21
6 6 6 6 6 6 7 7 8 8 8 8 8 8 8 8 8 8 8 8 8 8 9 9 10 10 10 10 10 10 10 9 9 10 10 10 11 13 14 15 15 15 15 14 13 13 12 12 13 15 16 14 12 10 9 8 8 8 9 10 11 11 12 12 12 12 12 12 13 13 14 15 17 18 20 23 28 32 36 36 34 30 26 24 23 22
Height
5702 5701 5700 5700 5700 5699 5698 5697 5697 5697 5695 5694 5694 5693 5692 5691 5690 5689 5688 5687 5685 5684 5683 5681 5680 5679 5678 5677 5676 5675 5674 5672 5671 5670 5669 5667 5666 5665 5663 5662 5660 5659 5657 5656 5655 5653 5651 5650 5649 5647 5645 5644 5643 5641 5640 5638 5636 5635 5634 5632 5631 5630 5629 5628 5627 5626 5625 5624 5623 5623 5622 5621 5621 5620 5620 5619 5619 5618 5617 5617 5616 5615 5615 5614 5613 5612
5698 5696 5696 5695 5695 5695 5693 5692 5692 5693 5692 5690 5689 5689 5688 5687 5685 5684 5683 5682 5681 5680 5678 5677 5676 5675 5673 5672 5671 5670 5669 5668 5667 5665 5664 5663 5661 5660 5659 5657 5656 5654 5653 5651 5650 5648 5647 5645 5644 5642 5641 5639 5638 5636 5635 5633 5632 5630 5629 5628 5626 5625 5624 5623 5622 5621 5620 5619 5619 5618 5617 5616 5616 5615 5615 5614 5614 5613 5612 5612 5611 5610 5610 5609 5608 5607
5693 5692 5691 5691 5690 5690 5689 5688 5688 5688 5687 5686 5685 5684 5683 5682 5681 5679 5678 5677 5676 5675 5674 5673 5671 5670 5669 5668 5667 5666 5665 5664 5662 5661 5660 5658 5657 5655 5654 5653 5651 5650 5648 5647 5645 5644 5642 5640 5639 5638 5636 5635 5633 5631 5630 5628 5627 5625 5624 5623 5621 5620 5619 5618 5617 5616 5615 5614 5614 5613 5612 5612 5611 5610 5610 5609 5609 5608 5607 5607 5606 5605 5604 5603 5602 5601
5689 5688 5687 5686 5685 5685 5684 5683 5683 5683 5683 5682 5681 5680 5679 5678 5676 5675 5674 5673 5671 5670 5669 5668 5667 5666 5664 5663 5662 5661 5660 5659 5658 5656 5655 5654 5652 5651 5650 5648 5647 5645 5644 5642 5640 5639 5637 5636 5634 5633 5631 5630 5628 5626 5625 5623 5622 5620 5619 5618 5616 5615 5614 5613 5612 5611 5610 5609 5609 5608 5607 5607 5606 5605 5605 5604 5604 5603 5602 5601 5600 5600 5599 5598 5597 5596
5684 5683 5682 5681 5681 5680 5679 5679 5679 5678 5678 5677 5676 5675 5674 5673 5672 5670 5669 5668 5667 5665 5664 5663 5662 5661 5660 5658 5657 5656 5655 5654 5653 5651 5650 5649 5648 5646 5645 5644 5642 5640 5639 5637 5636 5634 5633 5631 5630 5628 5626 5625 5623 5621 5620 5618 5617 5615 5614 5613 5611 5610 5609 5608 5607 5606 5605 5605 5604 5603 5602 5602 5601 5600 5600 5599 5599 5598 5597 5596 5595 5595 5594 5593 5591 5590
5678 5678 5677 5677 5676 5675 5674 5674 5674 5674 5673 5672 5672 5671 5670 5669 5667 5666 5665 5663 5662 5661 5660 5658 5657 5656 5655 5654 5653 5652 5651 5650 5648 5647 5645 5644 5643 5642 5640 5639 5637 5636 5634 5633 5631 5630 5628 5626 5625 5623 5621 5620 5618 5616 5615 5613 5612 5610 5609 5608 5606 5605 5604 5603 5602 5601 5600 5600 5599 5598 5597 5597 5596 5595 5595 5594 5594 5593 5592 5591 5590 5589 5588 5587 5586 5585
5673 5673 5673 5672 5671 5670 5670 5670 5669 5669 5669 5668 5667 5666 5665 5664 5663 5662 5660 5659 5657 5656 5655 5653 5652 5651 5650 5649 5648 5647 5646 5645 5643 5642 5641 5640 5638 5637 5635 5634 5632 5631 5630 5628 5626 5625 5623 5621 5620 5618 5616 5615 5613 5611 5610 5608 5607 5605 5604 5603 5601 5600 5599 5598 5597 5596 5595 5595 5594 5593 5593 5592 5591 5590 5590 5589 5588 5587 5586 5585 5585 5584 5583 5581 5580 5579
5668 5668 5668 5668 5667 5666 5665 5665 5665 5665 5664 5664 5662 5661 5660 5659 5658 5657 5656 5654 5653 5652 5650 5649 5647 5645 5645 5644 5643 5642 5641 5640 5639 5637 5636 5635 5633 5632 5630 5629 5627 5626 5624 5623 5621 5620 5618 5616 5615 5613 5611 5610 5608 5606 5605 5603 5602 5600 5599 5598 5596 5595 5594 5593 5592 5591 5590 5590 5589 5588 5587 5587 5586 5585 5585 5584 5583 5582 5581 5580 5579 5578 5577 5576 5575 5573
5663 5663 5663 5663 5662 5662 5661 5660 5659 5660 5660 5659 5658 5657 5656 5655 5654 5652 5651 5650 5648 5647 5646 5645 5642 5640 5639 5638 5638 5638 5637 5635 5634 5633 5631 5630 5628 5627 5625 5624 5623 5621 5619 5618 5616 5615 5613 5611 5610 5608 5606 5605 5603 5601 5600 5598 5597 5595 5594 5593 5591 5590 5589 5588 5587 5586 5585 5585 5584 5583 5582 5582 5581 5580 5579 5578 5577 5576 5575 5575 5574 5572 5571 5570 5569 5567
5659 5658 5658 5657 5657 5657 5657 5656 5655 5654 5655 5655 5653 5652 5651 5650 5649 5648 5646 5645 5644 5642 5642 5640 5638 5636 5634 5633 5633 5632 5632 5630 5629 5628 5627 5625 5624 5622 5620 5619 5618 5616 5615 5613 5611 5610 5608 5606 5605 5603 5601 5600 5598 5596 5595 5593 5592 5590 5589 5588 5587 5585 5585 5583 5582 5581 5580 5580 5579 5578 5577 5576 5575 5575 5574 5573 5572 5571 5570 5569 5568 5567 5565 5564 5563 5561
5654 5654 5653 5653 5652 5652 5652 5651 5650 5649 5650 5649 5648 5647 5646 5646 5645 5644 5642 5640 5638 5637 5637 5635 5634 5632 5630 5629 5627 5627 5626 5625 5624 5623 5622 5621 5619 5618 5616 5615 5613 5611 5610 5608 5606 5604 5603 5601 5600 5598 5596 5594 5593 5591 5590 5588 5587 5585 5584 5583 5582 5581 5580 5579 5577 5576 5575 5575 5574 5573 5572 5571 5570 5569 5568 5567 5566 5565 5564 5563 5562 5561 5559 5558 5556 5555
5650 5649 5649 5648 5647 5647 5647 5647 5646 5645 5645 5645 5644 5642 5641 5641 5641 5640 5639 5636 5634 5633 5632 5630 5629 5627 5626 5625 5624 5622 5621 5620 5619 5618 5616 5615 5614 5613 5611 5610 5608 5607 5605 5603 5601 5599 5598 5596 5594 5593 5591 5589 5587 5586 5585 5583 5582 5580 5579 5578 5577 5576 5575 5574 5572 5571 5570 5570 5569 5568 5567 5566 5565 5564 5563 5562 5561 5560 5559 5557 5556 5555 5553 5552 5550 5548
5645 5645 5644 5644 5643 5642 5642 5642 5642 5641 5640 5640 5639 5638 5636 5636 5636 5636 5635 5632 5630 5629 5628 5626 5624 5621 5620 5620 5620 5619 5617 5616 5615 5613 5612 5610 5608 5607 5606 5605 5603 5601 5600 5598 5596 5594 5593 5591 5590 5588 5586 5584 5582 5581 5580 5578 5577 5576 5575 5573 5572 5571 5570 5569 5568 5567 5566 5565 5564 5563 5562 5561 5560 5559 5557 5556 5555 5554 5553 5551 5550 5548 5547 5545 5543 5542
5640 5640 5640 5639 5638 5638 5638 5638 5637 5636 5635 5635 5635 5634 5633 5631 5631 5630 5630 5628 5626 5625 5624 5622 5620 5617 5615 5615 5615 5615 5614 5612 5611 5609 5607 5605 5603 5602 5601 5600 5598 5596 5595 5593 5590 5589 5587 5586 5584 5583 5581 5579 5578 5576 5575 5574 5572 5571 5570 5569 5567 5566 5565 5564 5563 5562 5561 5560 5559 5558 5557 5555 5554 5553 5552 5551 5549 5548 5546 5545 5543 5542 5540 5539 5537 5535
5636 5636 5635 5634 5633 5633 5633 5633 5633 5632 5631 5630 5630 5630 5628 5627 5626 5625 5625 5624 5622 5620 5620 5618 5616 5613 5611 5610 5610 5610 5610 5608 5607 5606 5604 5600 5597 5596 5596 5595 5593 5591 5590 5588 5585 5583 5582 5581 5579 5577 5576 5574 5573 5571 5570 5569 5568 5566 5565 5564 5562 5561 5560 5559 5558 5557 5556 5555 5554 5553 5551 5550 5549 5548 5546 5545 5543 5542 5540 5538 5537 5535 5533 5531 5530 5528
5632 5631 5631 5630 5629 5629 5629 5629 5628 5627 5626 5626 5625 5625 5624 5623 5621 5621 5620 5619 5617 5616 5615 5614 5611 5609 5606 5604 5604 5605 5605 5604 5603 5602 5600 5596 5592 5590 5591 5590 5589 5586 5585 5582 5580 5578 5577 5575 5574 5572 5571 5569 5568 5566 5565 5564 5563 5561 5560 5559 5558 5556 5555 5554 5553 5552 5551 5550 5549 5547 5546 5545 5543 5542 5540 5539 5537 5535 5533 5531 5530 5528 5526 5524 5522 5520
5627 5627 5626 5625 5625 5624 5624 5624 5624 5623 5622 5621 5621 5620 5619 5618 5617 5616 5615 5614 5613 5612 5610 5609 5607 5605 5603 5600 5598 5599 5600 5600 5599 5598 5596 5593 5588 5585 5585 5585 5584 5582 5580 5577 5575 5573 5572 5570 5569 5567 5566 5564 5563 5561 5560 5559 5558 5556 5555 5554 5553 5551 5550 5549 5548 5547 5545 5544 5543 5542 5540 5539 5537 5535 5534 5532 5530 5528 5526 5525 5523 5521 5519 5517 5515 5513
5623 5622 5622 5621 5620 5620 5620 5620 5619 5619 5618 5617 5616 5615 5615 5614 5613 5612 5611 5610 5608 5607 5606 5604 5603 5601 5600 5597 5594 5592 5594 5596 5595 5593 5592 5589 5585 5581 5580 5580 5579 5577 5575 5572 5570 5569 5567 5565 5564 5562 5560 5559 5558 5556 5555 5554 5552 5551 5550 5549 5547 5546 5545 5544 5543 5541 5540 5539 5537 5536 5534 5533 5531 5529 5527 5525 5523 5521 5519 5517 5515 5513 5511 5510 5508 5505
5618 5618 5618 5617 5616 5615 5615 5615 5614 5614 5614 5613 5612 5611 5610 5609 5608 5607 5606 5605 5604 5602 5601 5600 5598 5597 5595 5593 5590 5588 5589 5590 5590 5589 5588 5585 5581 5577 5575 5575 5574 5572 5570 5568 5565 5564 5563 5561 5559 5557 5556 5554 5553 5551 5550 5549 5547 5546 5545 5544 5542 5541 5540 5539 5537 5536 5535 5533 5531 5530 5528 5526 5524 5522 5520 5518 5516 5514 5512 5510 5508 5506 5504 5502 5500 5498
5614 5613 5613 5613 5613 5612 5610 5610 5610 5610 5609 5608 5607 5607 5605 5604 5603 5602 5601 5600 5599 5598 5597 5595 5594 5592 5591 5589 5587 5585 5585 5585 5585 5584 5583 5581 5577 5574 5571 5571 5570 5568 5565 5563 5561 5560 5558 5556 5554 5552 5551 5549 5548 5546 5545 5544 5542 5541 5540 5538 5537 5536 5535 5533 5532 5530 5529 5527 5525 5524 5521 5520 5517 5515 5513 5511 5509 5507 5505 5503 5501 5499 5497 5495 5492 5490
5610 5609 5609 5609 5609 5608 5606 5605 5605 5605 5605 5604 5603 5602 5601 5600 5599 5597 5596 5595 5594 5593 5592 5591 5589 5588 5586 5585 5583 5580 5580 5580 5580 5580 5578 5577 5573 5570 5568 5567 5565 5564 5561 5559 5557 5556 5554 5552 5550 5548 5546 5545 5543 5541 5540 5539 5537 5536 5535 5533 5532 5531 5529 5528 5526 5525 5523 5521 5519 5517 5515 5513 5511 5509 5506 5504 5502 5500 5498 5495 5493 5491 5489 5487 5485 5483
5606 5605 5604 5604 5605 5604 5602 5601 5600 5600 5600 5599 5599 5598 5596 5595 5594 5593 5591 5590 5590 5589 5587 5586 5585 5583 5581 5580 5578 5576 5575 5575 5575 5575 5574 5572 5569 5566 5564 5563 5561 5560 5558 5555 5554 5552 5550 5547 5545 5543 5541 5540 5538 5537 5535 5534 5532 5531 5530 5528 5527 5525 5524 5522 5520 5519 5517 5515 5513 5511 5509 5506 5504 5502 5500 5497 5495 5493 5490 5488 5486 5484 5482 5480 5478 5475
5602 5601 5600 5600 5600 5599 5598 5597 5596 5595 5595 5595 5594 5593 5592 5591 5590 5589 5587 5586 5585 5584 5583 5582 5580 5578 5576 5575 5573 5572 5571 5571 5570 5570 5569 5567 5565 5562 5560 5559 5557 5556 5554 5552 5550 5548 5546 5543 5541 5539 5537 5535 5534 5532 5530 5529 5527 5526 5525 5523 5521 5520 5518 5516 5515 5513 5511 5509 5507 5505 5502 5500 5498 5495 5493 5490 5488 5485 5483 5481 5479 5476 5474 5472 5470 5468
5597 5597 5596 5595 5595 5595 5594 5593 5591 5591 5590 5590 5589 5588 5587 5586 5585 5584 5582 5581 5580 5580 5579 5577 5575 5574 5571 5570 5569 5568 5566 5566 5566 5565 5564 5563 5561 5558 5556 5555 5554 5552 5550 5548 5546 5544 5542 5539 5537 5535 5533 5531 5529 5528 5526 5524 5523 5521 5519 5518 5516 5514 5512 5510 5509 5507 5505 5503 5500 5498 5496 5493 5491 5489 5486 5483 5481 5479 5476 5474 5472 5470 5467 5465 5463 5461
5593 5592 5592 5591 5590 5590 5589 5588 5587 5586 5586 5585 5584 5584 5583 5582 5581 5579 5578 5577 5576 5575 5574 5573 5571 5569 5567 5566 5565 5563 5561 5561 5561 5560 5560 5558 5556 5554 5552 5551 5550 5548 5546 5545 5542 5540 5538 5535 5533 5530 5529 5527 5525 5523 5521 5520 5518 5516 5514 5512 5511 5509 5507 5505 5503 5501 5499 5496 5494 5492 5489 5487 5484 5482 5479 5477 5474 5472 5470 5467 5465 5462 5460 5458 5456 5454
5589 5588 5588 5587 5586 5586 5585 5584 5583 5582 5581 5581 5580 5579 5578 5577 5576 5575 5574 5573 5572 5571 5570 5568 5566 5565 5563 5562 5561 5559 5557 5557 5556 5556 5555 5554 5551 5550 5548 5547 5545 5544 5543 5541 5539 5537 5534 5532 5529 5527 5525 5522 5521 5519 5517 5515 5513 5511 5510 5507 5505 5503 5501 5499 5497 5495 5493 5490 5488 5485 5483 5480 5478 5475 5473 5470 5468 5465 5463 5460 5458 5455 5453 5451 5449 5447
5585 5584 5583 5583 5582 5582 5581 5580 5579 5578 5577 5576 5576 5575 5574 5573 5572 5571 5570 5569 5568 5567 5565 5564 5562 5561 5559 5558 5556 5555 5554 5553 5552 5552 5551 5549 5547 5545 5544 5543 5541 5540 5539 5537 5535 5533 5531 5528 5526 5523 5521 5519 5516 5515 5512 5510 5509 5506 5505 5502 5500 5498 5496 5494 5491 5489 5487 5485 5482 5480 5477 5475 5472 5469 5467 5464 5461 5459 5456 5454 5451 5449 5446 5445 5442 5440
5580 5580 5579 5579 5578 5577 5576 5576 5575 5574 5573 5572 5571 5571 5570 5569 5568 5566 5565 5564 5564 5563 5561 5560 5558 5557 5555 5554 5552 5551 5550 5549 5548 5547 5547 5545 5543 5541 5540 5539 5537 5536 5535 5534 5532 5530 5528 5525 5522 5520 5517 5515 5512 5510 5508 5506 5504 5502 5500 5498 5495 5493 5490 5488 5486 5484 5481 5479 5476 5474 5471 5469 5466 5463 5460 5458 5455 5452 5450 5447 5444 5441 5439 5437 5435 5433
5576 5575 5575 5574 5574 5573 5572 5571 5570 5570 5569 5568 5567 5566 5565 5565 5564 5562 5561 5560 5559 5558 5556 5555 5554 5553 5552 5550 5549 5547 5546 5545 5544 5544 5543 5541 5539 5537 5536 5535 5533 5532 5531 5530 5529 5527 5525 5522 5519 5516 5513 5511 5509 5506 5503 5501 5500 5497 5495 5493 5490 5488 5485 5483 5481 5479 5476 5474 5471 5468 5465 5462 5460 5457 5454 5451 5448 5445 5442 5440 5437 5434 5432 5430 5428 5425
5572 5571 5570 5570 5570 5569 5568 5567 5566 5565 5565 5564 5563 5562 5561 5560 5560 5558 5557 5556 5555 5554 5552 5551 5550 5549 5548 5547 5545 5543 5542 5540 5540 5540 5539 5537 5535 5534 5533 5531 5529 5528 5527 5525 5525 5524 5523 5519 5515 5512 5510 5507 5505 5502 5499 5497 5495 5493 5491 5489 5486 5483 5480 5478 5476 5473 5471 5468 5465 5462 5459 5456 5453 5450 5447 5444 5441 5438 5435 5432 5429 5426 5424 5422 5420 5418
5567 5567 5566 5565 5565 5565 5564 5563 5562 5561 5560 5560 5559 5558 5557 5556 5555 5554 5553 5552 5551 5550 5549 5548 5546 5545 5544 5543 5541 5540 5538 5537 5536 5535 5535 5533 5531 5530 5529 5527 5525 5523 5522 5521 5520 5519 5518 5517 5514 5510 5506 5503 5501 5498 5495 5493 5491 5489 5486 5484 5481 5479 5476 5474 5471 5468 5466 5463 5460 5457 5454 5450 5447 5444 5441 5438 5435 5431 5428 5425 5422 5419 5416 5414 5412 5410
5563 5563 5562 5561 5561 5560 5560 5559 5558 5557 5556 5555 5555 5554 5553 5552 5551 5550 5549 5548 5547 5546 5545 5544 5543 5541 5540 5539 5538 5536 5534 5533 5532 5531 5530 5529 5528 5526 5525 5523 5521 5519 5518 5516 5515 5513 5512 5511 5510 5508 5504 5500 5497 5494 5491 5489 5486 5484 5482 5480 5477 5475 5472 5469 5466 5463 5460 5458 5455 5451 5448 5445 5441 5438 5435 5432 5429 5425 5422 5418 5415 5411 5409 5406 5404 5402
5559 5558 5558 5557 5557 5556 5555 5555 5554 5553 5552 5551 5551 5550 5549 5548 5547 5546 5545 5544 5543 5542 5541 5540 5539 5538 5536 5535 5534 5532 5530 5529 5528 5527 5526 5525 5524 5522 5521 5519 5517 5515 5513 5512 5510 5509 5507 5505 5504 5503 5500 5497 5494 5490 5487 5484 5482 5480 5477 5475 5472 5470 5467 5464 5461 5458 5455 5452 5449 5446 5443 5439 5436 5433 5430 5426 5423 5419 5415 5412 5408 5404 5401 5398 5396 5393
5555 5554 5554 5553 5553 5552 5551 5551 5550 5549 5549 5548 5547 5546 5545 5545 5544 5543 5542 5541 5540 5539 5538 5536 5535 5534 5533 5531 5530 5528 5527 5525 5524 5523 5522 5521 5520 5518 5517 5515 5513 5510 5509 5507 5505 5504 5502 5500 5499 5497 5495 5493 5490 5486 5483 5479 5477 5475 5472 5470 5467 5464 5461 5458 5455 5452 5449 5446 5443 5440 5437 5434 5431 5428 5425 5421 5417 5414 5410 5406 5402 5398 5394 5390 5387 5385
5551 5550 5550 5550 5549 5548 5548 5547 5546 5546 5545 5544 5544 5543 5542 5541 5540 5539 5538 5537 5536 5535 5534 5532 5531 5530 5529 5528 5526 5525 5523 5522 5520 5519 5518 5517 5515 5514 5512 5510 5508 5506 5504 5502 5501 5499 5497 5495 5494 5492 5490 5488 5486 5483 5479 5475 5472 5469 5466 5464 5462 5459 5455 5452 5449 5446 5443 5440 5438 5435 5431 5429 5426 5423 5420 5416 5413 5409 5405 5401 5397 5392 5388 5384 5380 5377
5547 5547 5546 5546 5545 5545 5544 5544 5543 5542 5542 5541 5540 5539 5539 5538 5537 5536 5535 5534 5533 5531 5530 5529 5527 5526 5525 5524 5523 5521 5520 5518 5516 5515 5514 5512 5511 5509 5508 5506 5504 5502 5500 5497 5496 5495 5492 5490 5489 5487 5485 5482 5480 5478 5475 5471 5467 5464 5461 5459 5456 5453 5450 5446 5444 5440 5438 5435 5432 5429 5426 5423 5420 5418 5415 5411 5408 5404 5400 5396 5391 5387 5382 5378 5374 5370
5544 5543 5543 5543 5542 5541 5541 5540 5540 5539 5538 5538 5537 5536 5535 5534 5533 5532 5531 5530 5529 5528 5526 5525 5524 5523 5521 5520 5519 5517 5516 5514 5512 5511 5509 5508 5506 5505 5503 5501 5499 5497 5495 5493 5491 5489 5488 5485 5484 5482 5480 5477 5475 5472 5469 5466 5463 5460 5457 5454 5451 5448 5444 5441 5438 5435 5432 5429 5426 5424 5421 5418 5415 5412 5409 5406 5402 5399 5395 5390 5386 5381 5377 5372 5368 5364
5540 5540 5540 5539 5539 5538 5538 5537 5536 5536 5535 5534 5534 5533 5532 5531 5530 5529 5528 5527 5525 5524 5523 5522 5520 5519 5518 5516 5515 5514 5512 5510 5508 5506 5505 5503 5501 5500 5499 5496 5494 5492 5490 5488 5486 5484 5482 5480 5478 5476 5474 5472 5470 5467 5464 5460 5458 5455 5452 5450 5446 5443 5439 5435 5432 5430 5427 5424 5421 5418 5415 5413 5410 5407 5403 5400 5397 5393 5389 5385 5380 5376 5371 5367 5363 5358
5537 5537 5536 5536 5536 5535 5535 5534 5533 5533 5532 5531 5530 5530 5529 5528 5527 5525 5525 5523 5522 5521 5520 5519 5517 5515 5514 5513 5511 5510 5508 5506 5504 5502 5500 5499 5497 5495 5494 5492 5490 5488 5485 5483 5481 5479 5476 5474 5472 5470 5468 5466 5464 5462 5459 5455 5452 5449 5447 5445 5442 5439 5435 5431 5428 5424 5421 5419 5416 5413 5410 5407 5405 5401 5398 5395 5391 5387 5383 5379 5375 5370 5366 5361 5357 5353
5534 5534 5534 5533 5533 5532 5531 5531 5530 5530 5529 5528 5527 5526 5525 5524 5523 5522 5521 5520 5519 5518 5517 5515 5514 5512 5510 5509 5507 5505 5504 5502 5500 5498 5496 5495 5493 5491 5489 5487 5485 5483 5481 5478 5476 5474 5471 5468 5466 5464 5462 5460 5458 5455 5453 5450 5447 5444 5442 5440 5438 5435 5432 5428 5423 5419 5416 5414 5411 5408 5405 5402 5399 5396 5392 5389 5385 5381 5377 5373 5369 5365 5360 5356 5351 5347
5531 5531 5530 5530 5530 5529 5528 5528 5527 5526 5525 5525 5524 5523 5522 5521 5520 5519 5518 5517 5516 5515 5513 5512 5510 5508 5506 5505 5503 5501 5499 5498 5496 5494 5492 5490 5488 5486 5485 5483 5480 5478 5476 5474 5471 5469 5466 5463 5460 5458 5456 5454 5452 5450 5448 5445 5442 5439 5436 5434 5432 5430 5428 5424 5419 5415 5411 5408 5405 5403 5400 5396 5394 5391 5387 5384 5380 5375 5371 5367 5363 5359 5354 5349 5345 5341
5529 5528 5528 5527 5527 5526 5525 5525 5524 5523 5523 5522 5521 5520 5519 5518 5517 5516 5515 5514 5512 5511 5510 5508 5506 5505 5503 5501 5499 5497 5495 5494 5492 5490 5488 5486 5484 5482 5480 5478 5476 5474 5472 5469 5467 5464 5461 5459 5456 5453 5450 5449 5447 5445 5442 5440 5438 5435 5432 5429 5427 5425 5423 5420 5415 5411 5407 5403 5400 5397 5394 5391 5388 5385 5382 5379 5375 5370 5366 5362 5357 5353 5348 5343 5338 5333
5526 5525 5525 5524 5524 5523 5522 5522 5521 5520 5520 5519 5518 5517 5516 5515 5514 5513 5512 5510 5509 5508 5506 5505 5503 5501 5500 5497 5495 5493 5491 5489 5488 5486 5484 5482 5480 5478 5476 5474 5472 5469 5467 5465 5462 5460 5457 5455 5451 5448 5445 5443 5441 5439 5437 5435 5433 5430 5428 5425 5422 5420 5417 5414 5411 5407 5403 5399 5395 5392 5389 5386 5383 5380 5377 5374 5370 5365 5361 5356 5352 5347 5342 5336 5331 5326
5523 5522 5522 5521 5521 5520 5520 5519 5518 5518 5517 5516 5515 5514 5513 5512 5511 5510 5508 5507 5506 5504 5503 5501 5499 5498 5496 5494 5492 5490 5487 5485 5484 5482 5480 5478 5476 5474 5472 5470 5467 5465 5463 5460 5458 5455 5453 5450 5447 5444 5441 5439 5436 5434 5432 5430 5428 5426 5423 5420 5417 5415 5411 5408 5405 5402 5399 5395 5392 5388 5384 5381 5378 5375 5372 5369 5365 5360 5356 5351 5346 5341 5336 5330 5325 5320
5520 5520 5519 5519 5518 5518 5517 5516 5516 5515 5514 5513 5512 5511 5510 5509 5508 5506 5505 5504 5502 5501 5499 5498 5496 5494 5492 5490 5489 5487 5485 5482 5480 5478 5476 5474 5472 5470 5468 5465 5463 5460 5458 5456 5453 5451 5449 5446 5443 5440 5437 5435 5432 5430 5427 5424 5422 5421 5419 5416 5413 5410 5407 5404 5400 5397 5394 5391 5387 5384 5380 5376 5373 5370 5367 5364 5360 5356 5351 5346 5340 5335 5330 5325 5320 5315
5517 5517 5517 5516 5516 5515 5515 5514 5513 5512 5511 5510 5509 5508 5507 5505 5504 5503 5502 5500 5499 5497 5496 5494 5493 5491 5489 5487 5485 5484 5482 5479 5477 5475 5472 5470 5468 5466 5464 5461 5459 5457 5454 5451 5449 5446 5444 5441 5439 5435 5433 5430 5428 5425 5422 5420 5417 5415 5414 5412 5410 5406 5403 5400 5396 5393 5389 5386 5382 5379 5375 5371 5368 5365 5362 5359 5355 5351 5347 5341 5335 5329 5324 5319 5314 5310
5515 5515 5514 5514 5513 5513 5512 5511 5510 5509 5508 5507 5506 5505 5504 5502 5501 5500 5499 5497 5496 5494 5492 5491 5489 5487 5485 5484 5482 5480 5478 5476 5474 5472 5469 5467 5465 5462 5460 5457 5455 5453 5450 5448 5445 5442 5440 5437 5434 5431 5428 5425 5423 5420 5418 5416 5413 5411 5409 5407 5405 5402 5399 5396 5392 5389 5385 5381 5378 5374 5370 5366 5362 5359 5356 5353 5350 5346 5342 5336 5330 5324 5319 5314 5310 5306
5513 5512 5512 5511 5510 5510 5509 5508 5507 5506 5505 5504 5503 5502 5500 5499 5498 5497 5495 5494 5492 5491 5489 5487 5486 5484 5482 5480 5479 5477 5475 5473 5470 5468 5466 5464 5461 5459 5456 5454 5452 5449 5447 5444 5442 5439 5436 5433 5430 5426 5423 5421 5418 5416 5414 5412 5410 5407 5405 5403 5400 5398 5395 5392 5389 5385 5381 5377 5373 5369 5365 5361 5357 5353 5350 5346 5344 5340 5337 5331 5326 5320 5315 5309 5305 5302
5510 5510 5509 5508 5508 5507 5506 5505 5504 5503 5502 5501 5500 5499 5497 5496 5495 5493 5492 5490 5489 5487 5486 5484 5482 5480 5479 5477 5475 5473 5471 5469 5467 5465 5463 5461 5458 5456 5454 5451 5449 5446 5444 5441 5439 5436 5434 5430 5427 5423 5419 5416 5414 5411 5409 5408 5406 5404 5401 5399 5396 5394 5390 5388 5385 5381 5377 5373 5368 5364 5360 5356 5351 5347 5343 5339 5336 5333 5330 5326 5322 5317 5311 5306 5301 5298
5508 5507 5506 5505 5505 5504 5503 5502 5501 5500 5499 5498 5497 5496 5494 5493 5491 5490 5489 5487 5485 5484 5482 5481 5479 5477 5475 5473 5471 5469 5467 5465 5463 5461 5459 5457 5455 5453 5450 5449 5446 5444 5442 5440 5437 5435 5432 5429 5425 5420 5416 5413 5410 5407 5405 5403 5402 5400 5398 5395 5392 5389 5386 5383 5380 5377 5373 5368 5364 5360 5355 5351 5346 5342 5338 5333 5329 5326 5324 5321 5317 5313 5308 5303 5298 5295
5505 5504 5504 5503 5502 5501 5500 5500 5498 5497 5496 5495 5494 5493 5491 5490 5489 5487 5485 5484 5482 5481 5479 5477 5475 5473 5471 5469 5467 5465 5463 5461 5459 5457 5455 5453 5451 5450 5447 5445 5444 5442 5439 5437 5435 5433 5430 5427 5424 5420 5415 5410 5406 5403 5400 5398 5397 5396 5395 5392 5389 5386 5382 5379 5375 5372 5368 5364 5360 5355 5350 5346 5341 5337 5333 5328 5324 5320 5317 5315 5312 5309 5305 5300 5295 5292